Location: Aurora Center
(43.5271°N, 98.5894°W)
Time: 08:09:27
(UTC-05:00)

ACS3 Solar Sail - Pass Details

Date: 27 June 2024
Orbit: 992 x 1023 km, 97.4° (Epoch: 11 July)

Event Time Altitude Azimuth Distance (km) Brightness Sun altitude
Exits shadow 22:40:19 14° 154° (SSE) 2,470 6.3 -11.8°
Maximum altitude 22:45:43 69° 74° (ENE) 1,061 4.9 -12.4°
Drops below altitude 10° 22:51:53 10° 353° (N) 2,765 8.1 -13.1°
Sets 22:54:23 0° 351° (N) 3,718 9.0 -13.4°
